[[{"header":{"parameterUnit":"m.s-1","parameterCategory":2,"la1":30.2991,"la2":30.254,"lo1":-89.0895,"lo2":-89.0444,"dy":0.0017,"dx":0.0017,"nx":28,"ny":28,"refTime":"2024-04-12T21:00:00:Z","depth":"0","parameterNumber":2,"parameterNumberName":"U-component_of_CURRENTS"},"data":[0,0,0,0,0,0,0,0,0,0,0,0,0,0,0,0,0,0,0,0,0,0,0,0,0,0,0,0,0,0,0,0,0,0,0,0,0,0,0,0,0,0,0,0,0,0,0,0,0,0,0,0,0,0,0,0,0,0,-0.264,-0.2641,0,-0.266,-0.2661,-0.2661,-0.2647,-0.2646,-0.2645,-0.2645,-0.2681,-0.2683,-0.2684,0,0,0,0,0,0,0,0,0,0,0,0,0,-0.264,-0.264,-0.264,-0.2641,-0.2641,-0.266,-0.2661,-0.2661,-0.2647,-0.2646,-0.2645,-0.2644,-0.2681,-0.2683,-0.2685,0,0,0,0,0,0,0,0,0,0,0,0,0,-0.2649,-0.264,-0.264,-0.2635,-0.2635,-0.266,-0.2661,-0.2661,-0.2647,-0.2646,-0.2645,-0.2644,-0.268,-0.2682,-0.2685,-0.2723,0,0,-0.2693,-0.2694,0,0,0,0,0,0,0,0,-0.2649,-0.2649,-0.2636,-0.2635,-0.2635,-0.2649,-0.2674,-0.2682,-0.2648,-0.2644,-0.2645,-0.2643,-0.2672,-0.2675,-0.2683,-0.2725,-0.2727,-0.2693,-0.2694,-0.2695,-0.2696,0,0,0,0,0,0,0,-0.2648,-0.2649,-0.265,-0.2636,-0.2635,-0.2648,-0.2648,-0.2676,-0.2666,-0.2644,-0.2643,-0.2643,-0.2672,-0.2681,-0.2684,-0.2727,-0.2693,-0.2695,-0.2697,-0.2698,-0.2784,-0.2785,0,0,0,0,0,0,-0.2641,-0.2648,-0.2649,-0.265,-0.2638,-0.2649,-0.2649,-0.2647,-0.2665,-0.2666,-0.2644,-0.2642,-0.2677,-0.2681,-0.2685,-0.2713,-0.2695,-0.2698,-0.2699,-0.2783,-0.2784,-0.2785,0,0,0,0,0,0,-0.2641,-0.2641,-0.2648,-0.2649,-0.265,-0.265,-0.2648,-0.2648,-0.2645,-0.2664,-0.2666,-0.2639,-0.2676,-0.2681,-0.2716,-0.2715,-0.2699,-0.2701,-0.2782,-0.2783,-0.2784,-0.2782,0,0,0,0,0,0,-0.2641,-0.2641,-0.2631,-0.2648,-0.265,-0.2647,-0.2649,-0.2649,-0.2647,-0.2644,-0.2661,-0.2664,-0.2676,-0.2712,-0.2719,-0.2718,-0.2703,-0.2781,-0.2783,-0.2784,-0.2781,-0.2783,-0.2784,0,0,0,0,0,-0.2641,-0.261,-0.2631,-0.263,-0.2638,-0.2646,-0.2648,-0.2646,-0.2647,-0.2641,-0.2671,-0.2663,-0.2725,-0.2716,-0.2723,-0.2723,-0.278,-0.2782,-0.2784,-0.278,-0.2782,-0.2784,0,0,0,0,0,0,-0.2578,-0.2607,-0.2629,-0.2603,-0.2625,-0.2643,-0.2622,-0.2644,-0.2662,-0.2656,-0.2684,-0.269,-0.2717,-0.2727,-0.2716,-0.2753,-0.2747,-0.275,-0.2742,-0.2744,-0.2746,-0.2733,-0.2705,0,0,0,0,0,-0.2571,-0.2565,-0.2602,-0.2577,-0.2586,-0.2613,-0.2614,-0.2625,-0.2646,-0.2651,-0.2673,-0.2699,-0.2733,-0.2743,-0.2768,-0.2796,-0.2766,-0.2798,-0.2799,-0.28,-0.2796,-0.2784,-0.2783,-0.2791,-0.2791,-0.2791,0,0,-0.2532,-0.2551,-0.2541,-0.2566,-0.2576,-0.2596,-0.2609,-0.2603,-0.2626,-0.2655,-0.2677,-0.2706,-0.2743,-0.2772,-0.2784,-0.2778,-0.2773,-0.2803,-0.2803,-0.2798,-0.2785,-0.2784,-0.2784,-0.2792,-0.2792,-0.2791,0,0,-0.2463,-0.2477,-0.2462,-0.2493,-0.2521,-0.2553,-0.2555,-0.2587,-0.2601,-0.2643,-0.2671,-0.2705,-0.2747,-0.2778,-0.28,-0.2829,-0.2785,-0.2828,-0.2825,-0.2813,-0.2812,-0.2811,-0.272,-0.2711,-0.2826,-0.2826,-0.2826,0,-0.2421,-0.2421,-0.2454,-0.2467,-0.2488,-0.2538,-0.2546,-0.2578,-0.2621,-0.2641,-0.2642,-0.272,-0.2751,-0.2801,-0.2815,-0.2831,-0.2789,-0.2813,-0.2813,-0.2812,-0.281,-0.2719,-0.2708,-0.2827,-0.2826,-0.2826,-0.2826,0,-0.2366,-0.2378,-0.2364,-0.2417,-0.2443,-0.2449,-0.2517,-0.2545,-0.2579,-0.2619,-0.2664,-0.2714,-0.2755,-0.2775,-0.281,-0.2826,-0.2782,-0.2816,-0.2802,-0.2809,-0.2712,-0.2701,-0.2827,-0.2827,-0.2827,-0.2827,0,0,-0.2263,-0.2317,-0.2321,-0.2347,-0.2425,-0.2438,-0.2487,-0.2547,-0.2575,-0.2621,-0.2646,-0.2724,-0.2743,-0.277,-0.2808,-0.2812,-0.2763,-0.2809,-0.2809,-0.2706,-0.2668,-0.2579,-0.2558,-0.2795,-0.2794,-0.2794,-0.2583,0,-0.2221,-0.2229,-0.2281,-0.2306,-0.2321,-0.2405,-0.245,-0.2514,-0.2568,-0.2606,-0.2662,-0.2699,-0.2744,-0.2759,-0.2773,-0.2783,-0.2743,-0.2812,-0.2688,-0.2682,-0.2595,-0.2548,-0.2435,-0.2235,-0.2573,-0.2571,-0.257,0,-0.2174,-0.2191,-0.2197,-0.227,-0.2283,-0.2311,-0.2394,-0.2443,-0.2528,-0.2565,-0.2615,-0.2657,-0.269,-0.2718,-0.2694,-0.2732,-0.269,-0.2679,-0.2672,-0.2587,-0.2577,-0.2295,-0.2202,-0.2152,-0.2553,-0.2554,-0.2556,0,-0.2098,-0.2146,-0.2145,-0.2172,-0.2254,-0.2272,-0.2322,-0.2415,-0.2465,-0.2529,-0.2555,-0.2599,-0.2604,-0.2597,-0.2593,-0.2633,-0.2527,-0.2578,-0.2435,-0.2425,-0.2303,-0.2284,-0.2141,-0.2519,-0.252,-0.252,-0.2521,0,-0.205,-0.2054,-0.2104,-0.2107,-0.2124,-0.2201,-0.2241,-0.2304,-0.2387,-0.2424,-0.2515,-0.2525,-0.2579,-0.2548,-0.254,-0.2432,-0.247,-0.2401,-0.2372,-0.2293,-0.2277,-0.2211,-0.2274,-0.2512,-0.2514,-0.2516,-0.2517,0,-0.197,-0.2001,-0.201,-0.2068,-0.2086,-0.2096,-0.2197,-0.2237,-0.2313,-0.2356,-0.2371,-0.2442,-0.239,-0.2402,-0.2354,-0.2334,-0.2213,-0.221,-0.2074,-0.2034,-0.1877,-0.1947,-0.1834,-0.178,-0.2005,-0.2001,-0.1999,0,-0.1933,-0.1924,-0.1966,-0.1978,-0.1999,-0.2039,-0.2081,-0.2182,-0.2229,-0.2295,-0.2298,-0.2273,-0.2243,-0.2125,-0.2086,-0.1986,-0.2032,-0.181,-0.1896,-0.1816,-0.1873,-0.1958,-0.1928,-0.1696,-0.1691,-0.1687,-0.1684,0,-0.1871,-0.188,-0.1885,-0.1904,-0.1931,-0.1981,-0.2034,-0.2061,-0.2161,-0.2184,-0.2165,-0.2131,-0.2022,-0.189,-0.1779,-0.1718,-0.1772,-0.1721,-0.1691,-0.1652,-0.1685,-0.1634,-0.1844,-0.1647,-0.1651,-0.1654,-0.1656,-0.1657,-0.1823,-0.1812,-0.1821,-0.1837,-0.1873,-0.1905,-0.1905,-0.1958,-0.1985,-0.1972,-0.1998,-0.1916,-0.1787,-0.1629,-0.1527,-0.1327,-0.1503,-0.1295,-0.1382,-0.1469,-0.1442,-0.1535,-0.1302,-0.1303,-0.1305,-0.1306,-0.1307,0,-0.177,-0.1761,-0.1768,-0.1775,-0.1785,-0.1827,-0.1866,-0.1833,-0.1797,-0.1802,-0.1751,-0.1663,-0.146,-0.1324,-0.1128,-0.1034,-0.1031,-0.0995,-0.1089,-0.1073,-0.1153,-0.1164,-0.0829,-0.0829,-0.0829,-0.0829,-0.0829,-0.0829,-0.1733,-0.1709,-0.1709,-0.1687,-0.1692,-0.1654,-0.1647,-0.1578,-0.1562,-0.1471,-0.1444,-0.1444,-0.1314,-0.1242,-0.0983,-0.0882,-0.0887,-0.0868,-0.0926,-0.0989,-0.1024,-0.1058,-0.1077,-0.0729,-0.0729,-0.0764,-0.0764,-0.0765]},{"header":{"parameterUnit":"m.s-1","parameterCategory":2,"la1":30.2991,"la2":30.254,"lo1":-89.0895,"lo2":-89.0444,"dy":0.0017,"dx":0.0017,"nx":28,"ny":28,"refTime":"2024-04-12T21:00:00:Z","depth":"0","parameterNumber":3,"parameterNumberName":"V-component_of_CURRENTS"},"data":[0,0,0,0,0,0,0,0,0,0,0,0,0,0,0,0,0,0,0,0,0,0,0,0,0,0,0,0,0,0,0,0,0,0,0,0,0,0,0,0,0,0,0,0,0,0,0,0,0,0,0,0,0,0,0,0,0,0,-0.1019,-0.1019,0,-0.0952,-0.0951,-0.0949,-0.0891,-0.0891,-0.0892,-0.0892,-0.0678,-0.0673,-0.0667,0,0,0,0,0,0,0,0,0,0,0,0,0,-0.0973,-0.0974,-0.1019,-0.1019,-0.1019,-0.0952,-0.0951,-0.0949,-0.0891,-0.0891,-0.0892,-0.0892,-0.068,-0.0673,-0.0666,0,0,0,0,0,0,0,0,0,0,0,0,0,-0.095,-0.0974,-0.1019,-0.0988,-0.0986,-0.0953,-0.0951,-0.0948,-0.0891,-0.0891,-0.0892,-0.0892,-0.0682,-0.0674,-0.0665,-0.0609,0,0,-0.0639,-0.0635,0,0,0,0,0,0,0,0,-0.0952,-0.0951,-0.0993,-0.0991,-0.0988,-0.0938,-0.0856,-0.083,-0.0891,-0.0918,-0.0892,-0.0892,-0.0757,-0.0742,-0.0719,-0.0599,-0.059,-0.0638,-0.0633,-0.0629,-0.0627,0,0,0,0,0,0,0,-0.0954,-0.0953,-0.0984,-0.0993,-0.099,-0.0936,-0.0933,-0.0851,-0.0828,-0.0916,-0.0914,-0.0919,-0.0753,-0.0728,-0.0714,-0.0587,-0.0638,-0.0631,-0.0625,-0.0622,-0.0404,-0.0403,0,0,0,0,0,0,-0.0985,-0.0956,-0.0987,-0.0983,-0.0979,-0.0938,-0.0934,-0.0947,-0.0832,-0.0819,-0.0919,-0.0917,-0.0743,-0.0724,-0.0706,-0.064,-0.0629,-0.0621,-0.0616,-0.0404,-0.0403,-0.0403,0,0,0,0,0,0,-0.0985,-0.0989,-0.0989,-0.0973,-0.0971,-0.094,-0.0953,-0.0945,-0.0919,-0.0838,-0.082,-0.0902,-0.0742,-0.0718,-0.0626,-0.0631,-0.0617,-0.0609,-0.0405,-0.0404,-0.0403,-0.0504,0,0,0,0,0,0,-0.0984,-0.0989,-0.0995,-0.0976,-0.0973,-0.0974,-0.0954,-0.0944,-0.0926,-0.0922,-0.0817,-0.0798,-0.074,-0.0639,-0.0617,-0.0619,-0.0603,-0.0406,-0.0404,-0.0403,-0.0501,-0.0506,-0.0511,0,0,0,0,0,-0.0982,-0.0986,-0.0996,-0.0999,-0.0988,-0.0975,-0.0966,-0.0938,-0.0926,-0.0913,-0.0838,-0.0801,-0.0617,-0.0631,-0.0605,-0.0605,-0.0406,-0.0405,-0.0403,-0.0499,-0.0505,-0.0511,0,0,0,0,0,0,-0.0959,-0.0981,-0.0991,-0.1,-0.0996,-0.0968,-0.0951,-0.0939,-0.0871,-0.0858,-0.0779,-0.0753,-0.0681,-0.062,-0.0638,-0.0538,-0.051,-0.0504,-0.0592,-0.0597,-0.0601,-0.0625,-0.0595,0,0,0,0,0,-0.0966,-0.0977,-0.0989,-0.0994,-0.0996,-0.0975,-0.0962,-0.0951,-0.0901,-0.0873,-0.0808,-0.0728,-0.0655,-0.0609,-0.0535,-0.0467,-0.0444,-0.0453,-0.0458,-0.0463,-0.0464,-0.0426,-0.0429,-0.0398,-0.0398,-0.0398,0,0,-0.0961,-0.0973,-0.098,-0.0991,-0.0981,-0.0981,-0.0964,-0.0951,-0.0947,-0.0856,-0.0807,-0.0737,-0.0639,-0.0575,-0.0538,-0.0524,-0.0465,-0.0461,-0.0466,-0.0464,-0.0425,-0.0428,-0.0431,-0.0397,-0.0397,-0.0398,0,0,-0.0957,-0.0968,-0.0981,-0.0982,-0.0986,-0.0975,-0.0978,-0.0957,-0.0941,-0.0893,-0.0831,-0.0763,-0.0653,-0.0593,-0.0545,-0.0524,-0.0494,-0.0506,-0.0545,-0.0509,-0.0512,-0.0514,-0.0529,-0.0532,-0.0507,-0.0507,-0.0507,0,-0.0954,-0.0976,-0.0977,-0.0987,-0.0989,-0.0978,-0.0986,-0.0968,-0.092,-0.0903,-0.0889,-0.0742,-0.0664,-0.0584,-0.0585,-0.0538,-0.053,-0.0538,-0.052,-0.0521,-0.0521,-0.0535,-0.0537,-0.0512,-0.0511,-0.0511,-0.0511,0,-0.0964,-0.098,-0.0981,-0.1001,-0.0996,-0.0998,-0.0995,-0.0982,-0.0966,-0.0946,-0.0881,-0.0786,-0.07,-0.0673,-0.062,-0.0581,-0.0582,-0.0538,-0.0517,-0.0531,-0.0544,-0.0544,-0.0519,-0.0517,-0.0516,-0.0514,0,0,-0.0977,-0.0991,-0.0994,-0.1009,-0.1007,-0.1008,-0.1001,-0.0993,-0.0988,-0.0947,-0.0922,-0.0819,-0.0781,-0.0724,-0.0656,-0.0626,-0.0637,-0.0594,-0.059,-0.0631,-0.0604,-0.0595,-0.0594,-0.0596,-0.0596,-0.0595,-0.0628,0,-0.0993,-0.102,-0.1013,-0.1031,-0.1051,-0.1035,-0.1031,-0.1017,-0.0994,-0.0965,-0.0895,-0.0833,-0.0798,-0.0753,-0.0724,-0.064,-0.0635,-0.0635,-0.0562,-0.0561,-0.0569,-0.0592,-0.0475,-0.0491,-0.0627,-0.0627,-0.0627,0,-0.102,-0.1036,-0.1061,-0.107,-0.1073,-0.1073,-0.1066,-0.1061,-0.102,-0.0997,-0.0943,-0.0881,-0.0817,-0.0783,-0.0707,-0.0714,-0.0675,-0.0631,-0.063,-0.0581,-0.055,-0.0486,-0.0485,-0.0213,-0.0627,-0.0627,-0.0627,0,-0.1059,-0.1072,-0.1094,-0.11,-0.1103,-0.1103,-0.1097,-0.1071,-0.106,-0.1011,-0.0979,-0.0914,-0.0859,-0.0807,-0.0737,-0.0716,-0.0675,-0.0623,-0.0593,-0.0595,-0.0457,-0.0446,-0.0196,-0.0585,-0.0585,-0.0585,-0.0585,0,-0.1098,-0.1122,-0.1116,-0.1137,-0.1156,-0.1139,-0.1147,-0.1131,-0.1087,-0.1069,-0.0996,-0.096,-0.0858,-0.0817,-0.0765,-0.0702,-0.0703,-0.0613,-0.0593,-0.0492,-0.0485,-0.021,-0.0116,-0.0586,-0.0586,-0.0586,-0.0586,0,-0.1162,-0.1156,-0.1189,-0.1187,-0.1185,-0.1204,-0.1184,-0.1187,-0.1134,-0.1103,-0.108,-0.0991,-0.0958,-0.0893,-0.0809,-0.0726,-0.0527,-0.0649,-0.0571,-0.0541,-0.0234,-0.0154,0.0001,0.0127,-0.0603,-0.0603,-0.0603,0,-0.1208,-0.1232,-0.1236,-0.1254,-0.1258,-0.1271,-0.1281,-0.123,-0.1217,-0.113,-0.1114,-0.1056,-0.105,-0.095,-0.0805,-0.0737,-0.0548,-0.0535,-0.045,-0.0206,-0.0101,-0.0071,0.0027,-0.0327,-0.0324,-0.0322,-0.0321,0,-0.1298,-0.129,-0.1307,-0.1343,-0.1357,-0.1367,-0.1361,-0.1351,-0.1287,-0.1259,-0.1227,-0.1212,-0.1083,-0.0946,-0.081,-0.0705,-0.0307,-0.0493,-0.022,0.0145,0.0178,0.0306,-0.0358,-0.0303,-0.0305,-0.0306,-0.0307,-0.0308,-0.1363,-0.1385,-0.1399,-0.1434,-0.145,-0.1462,-0.1479,-0.147,-0.1467,-0.1455,-0.1393,-0.1396,-0.1021,-0.0821,-0.0666,-0.012,-0.0229,0.0084,0.0153,0.0153,0.0322,-0.0346,-0.0275,-0.0277,-0.0278,-0.0279,-0.028,0,-0.1426,-0.1443,-0.1491,-0.1519,-0.1556,-0.1536,-0.1534,-0.1553,-0.1585,-0.161,-0.1634,-0.13,-0.0932,-0.0491,0.0227,0.0537,0.0635,0.0715,0.0868,0.0933,0.0392,0.0462,0.0675,0.0675,0.0674,0.0674,0.0674,0.0673,-0.1459,-0.1508,-0.1526,-0.1608,-0.1629,-0.1664,-0.1667,-0.1696,-0.171,-0.168,-0.1565,-0.1462,-0.0585,0.0443,0.1193,0.1269,0.1538,0.1469,0.1561,0.1308,0.1257,0.121,0.1306,0.1692,0.1694,0.2148,0.2153,0.2156]}],[{"header":{"parameterUnit":"m.s-1","parameterCategory":2,"la1":30.2991,"la2":30.254,"lo1":-89.0895,"lo2":-89.0444,"dy":0.0017,"dx":0.0017,"nx":28,"ny":28,"refTime":"2024-04-12T21:00:00:Z","depth":"2","parameterNumber":2,"parameterNumberName":"U-component_of_CURRENTS"},"data":[0,0,0,0,0,0,0,0,0,0,0,0,0,0,0,0,0,0,0,0,0,0,0,0,0,0,0,0,0,0,0,0,0,0,0,0,0,0,0,0,0,0,0,0,0,0,0,0,0,0,0,0,0,0,0,0,0,0,-0.2815,-0.2816,0,-0.2917,-0.2918,-0.2919,-0.292,-0.2919,-0.2918,-0.2917,-0.2943,-0.2945,-0.2946,0,0,0,0,0,0,0,0,0,0,0,0,0,-0.2757,-0.2757,-0.2815,-0.2816,-0.2818,-0.2917,-0.2918,-0.2919,-0.2921,-0.2919,-0.2918,-0.2917,-0.2943,-0.2945,-0.2947,0,0,0,0,0,0,0,0,0,0,0,0,0,-0.281,-0.2757,-0.2815,-0.2833,-0.2835,-0.2917,-0.2918,-0.2919,-0.2921,-0.2919,-0.2918,-0.2916,-0.2942,-0.2944,-0.2947,-0.2993,0,0,-0.2954,-0.2956,0,0,0,0,0,0,0,0,-0.2807,-0.2812,-0.2828,-0.2832,-0.2835,-0.2907,-0.2908,-0.2941,-0.2921,-0.2885,-0.2917,-0.2915,-0.2927,-0.2931,-0.295,-0.2994,-0.2996,-0.2955,-0.2956,-0.2957,-0.2958,0,0,0,0,0,0,0,-0.2803,-0.2808,-0.2852,-0.283,-0.2834,-0.2883,-0.2887,-0.2915,-0.291,-0.2888,-0.2889,-0.2906,-0.2928,-0.2948,-0.2951,-0.2996,-0.2955,-0.2957,-0.2958,-0.2959,-0.3033,-0.3034,0,0,0,0,0,0,-0.2791,-0.2804,-0.2849,-0.2856,-0.282,-0.2885,-0.2889,-0.2883,-0.2911,-0.2916,-0.2907,-0.2906,-0.2945,-0.2948,-0.2952,-0.2969,-0.2957,-0.296,-0.2961,-0.3033,-0.3033,-0.3034,0,0,0,0,0,0,-0.2789,-0.2793,-0.2845,-0.2836,-0.2846,-0.2886,-0.288,-0.2886,-0.2892,-0.2927,-0.2929,-0.2906,-0.2943,-0.2948,-0.2969,-0.2971,-0.2961,-0.2963,-0.3032,-0.3033,-0.3034,-0.3028,0,0,0,0,0,0,-0.2786,-0.2791,-0.2782,-0.2834,-0.2846,-0.2868,-0.2882,-0.2889,-0.2907,-0.2905,-0.2927,-0.2929,-0.2943,-0.2966,-0.2972,-0.2974,-0.2965,-0.3032,-0.3033,-0.3034,-0.3027,-0.3028,-0.3029,0,0,0,0,0,-0.2784,-0.2751,-0.278,-0.2786,-0.2831,-0.2868,-0.2877,-0.2901,-0.2908,-0.2902,-0.2929,-0.2927,-0.2975,-0.2969,-0.2976,-0.2978,-0.3031,-0.3032,-0.3033,-0.3027,-0.3028,-0.3029,0,0,0,0,0,0,-0.2716,-0.2751,-0.2783,-0.2762,-0.2812,-0.2868,-0.2863,-0.2897,-0.2918,-0.2911,-0.2942,-0.2946,-0.2964,-0.2976,-0.2968,-0.3002,-0.3,-0.3003,-0.2993,-0.2994,-0.2994,-0.2979,-0.2967,0,0,0,0,0,-0.2704,-0.2688,-0.275,-0.274,-0.2754,-0.2816,-0.2835,-0.286,-0.2893,-0.29,-0.2926,-0.295,-0.298,-0.2988,-0.3011,-0.3035,-0.3006,-0.3039,-0.304,-0.304,-0.3033,-0.3025,-0.3024,-0.3038,-0.3038,-0.3038,0,0,-0.2675,-0.2697,-0.2688,-0.2726,-0.276,-0.2792,-0.282,-0.2837,-0.287,-0.29,-0.2928,-0.2954,-0.2988,-0.3013,-0.3022,-0.3019,-0.301,-0.3042,-0.3042,-0.3034,-0.3026,-0.3025,-0.3023,-0.3038,-0.3038,-0.3038,0,0,-0.263,-0.263,-0.2619,-0.2655,-0.271,-0.2753,-0.2757,-0.2816,-0.2835,-0.2882,-0.2912,-0.2943,-0.2983,-0.3014,-0.3036,-0.3057,-0.3017,-0.3055,-0.3046,-0.3039,-0.3037,-0.3035,-0.2941,-0.2932,-0.3053,-0.3053,-0.3053,0,-0.26,-0.2604,-0.2624,-0.2643,-0.2672,-0.2733,-0.2755,-0.2792,-0.2857,-0.2877,-0.2878,-0.2959,-0.2988,-0.3035,-0.3042,-0.3058,-0.3012,-0.304,-0.3038,-0.3036,-0.3035,-0.2939,-0.2929,-0.3053,-0.3053,-0.3053,-0.3053,0,-0.2578,-0.2583,-0.2572,-0.2621,-0.2653,-0.2668,-0.2738,-0.2766,-0.2804,-0.2853,-0.2895,-0.2945,-0.2988,-0.3007,-0.3034,-0.3047,-0.2999,-0.304,-0.3031,-0.3033,-0.2932,-0.292,-0.3053,-0.3053,-0.3053,-0.3053,0,0,-0.2496,-0.2547,-0.2544,-0.257,-0.2641,-0.2662,-0.2709,-0.2771,-0.279,-0.2851,-0.2874,-0.2951,-0.297,-0.2995,-0.3031,-0.3034,-0.2978,-0.3025,-0.3025,-0.2921,-0.2881,-0.274,-0.2714,-0.3013,-0.3013,-0.3012,-0.2793,0,-0.2479,-0.2502,-0.2537,-0.2566,-0.2586,-0.2649,-0.2686,-0.2749,-0.2794,-0.2823,-0.2884,-0.2914,-0.2968,-0.2975,-0.2994,-0.3001,-0.2956,-0.3028,-0.2904,-0.2898,-0.2768,-0.2701,-0.2509,-0.229,-0.2782,-0.278,-0.2779,0,-0.245,-0.2476,-0.2499,-0.2545,-0.2555,-0.258,-0.2637,-0.2676,-0.274,-0.2771,-0.282,-0.2859,-0.2896,-0.2926,-0.2912,-0.2949,-0.2899,-0.2887,-0.288,-0.2747,-0.274,-0.2381,-0.2251,-0.276,-0.2761,-0.2763,-0.2764,0,-0.2397,-0.2436,-0.2453,-0.2473,-0.2543,-0.2553,-0.2582,-0.2651,-0.2679,-0.2721,-0.2736,-0.2791,-0.2803,-0.2795,-0.2798,-0.2838,-0.2736,-0.2791,-0.2596,-0.2582,-0.2393,-0.2364,-0.2725,-0.2726,-0.2726,-0.2727,-0.2728,0,-0.2361,-0.2366,-0.2419,-0.2431,-0.2438,-0.2495,-0.2501,-0.2545,-0.2593,-0.2611,-0.269,-0.2701,-0.2774,-0.2751,-0.2739,-0.2614,-0.2683,-0.2551,-0.252,-0.2378,-0.2352,-0.2768,-0.2776,-0.2719,-0.272,-0.2722,-0.2723,0,-0.23,-0.2338,-0.2355,-0.2408,-0.2414,-0.2413,-0.2449,-0.246,-0.2508,-0.2528,-0.2538,-0.2613,-0.2566,-0.2586,-0.2545,-0.2508,-0.2425,-0.2352,-0.2136,-0.2083,-0.2272,-0.2283,-0.2085,-0.2078,-0.2072,-0.2067,-0.2063,0,-0.2263,-0.2267,-0.2321,-0.2329,-0.2344,-0.2349,-0.236,-0.2411,-0.2432,-0.2471,-0.2477,-0.2445,-0.2384,-0.2247,-0.2177,-0.2039,-0.2214,-0.179,-0.1852,-0.2217,-0.2208,-0.2228,-0.2245,-0.1566,-0.1558,-0.1552,-0.1546,0,-0.2195,-0.222,-0.2254,-0.2269,-0.2274,-0.228,-0.2293,-0.2287,-0.234,-0.2304,-0.2243,-0.217,-0.2058,-0.1842,-0.1702,-0.1627,-0.1808,-0.1652,-0.2082,-0.1779,-0.1717,-0.1713,-0.1749,-0.149,-0.1496,-0.15,-0.1503,-0.1505,-0.2136,-0.2141,-0.2183,-0.2184,-0.2201,-0.218,-0.212,-0.2122,-0.2049,-0.1967,-0.2015,-0.1843,-0.1755,-0.144,-0.1314,-0.1233,-0.1366,-0.1316,-0.134,-0.1371,-0.1371,-0.1305,-0.0995,-0.0997,-0.0999,-0.1002,-0.1003,0,-0.2035,-0.2058,-0.2082,-0.2084,-0.2059,-0.2099,-0.2053,-0.1944,-0.1764,-0.1749,-0.163,-0.1381,-0.1161,-0.1124,-0.0883,-0.0784,-0.0835,-0.0764,-0.0854,-0.0905,-0.0951,-0.094,-0.0444,-0.0443,-0.0442,-0.0442,0,0,-0.199,-0.1968,-0.1982,-0.1911,-0.1919,-0.1804,-0.1727,-0.1568,-0.1491,-0.1291,-0.1197,-0.1226,-0.1136,-0.0867,-0.0715,-0.0571,-0.0772,-0.0527,-0.0962,-0.1125,-0.1173,-0.1225,-0.1255,0,0,0,0,0]},{"header":{"parameterUnit":"m.s-1","parameterCategory":2,"la1":30.2991,"la2":30.254,"lo1":-89.0895,"lo2":-89.0444,"dy":0.0017,"dx":0.0017,"nx":28,"ny":28,"refTime":"2024-04-12T21:00:00:Z","depth":"2","parameterNumber":3,"parameterNumberName":"V-component_of_CURRENTS"},"data":[0,0,0,0,0,0,0,0,0,0,0,0,0,0,0,0,0,0,0,0,0,0,0,0,0,0,0,0,0,0,0,0,0,0,0,0,0,0,0,0,0,0,0,0,0,0,0,0,0,0,0,0,0,0,0,0,0,0,0.0265,0.0266,0,0.032,0.032,0.032,0.0317,0.0317,0.0317,0.0317,0.0374,0.0376,0.0377,0,0,0,0,0,0,0,0,0,0,0,0,0,0.0195,0.0196,0.0265,0.0266,0.0268,0.032,0.032,0.032,0.0317,0.0317,0.0317,0.0317,0.0374,0.0376,0.0378,0,0,0,0,0,0,0,0,0,0,0,0,0,0.0227,0.0196,0.0265,0.0279,0.0281,0.032,0.032,0.032,0.0317,0.0317,0.0317,0.0317,0.0373,0.0376,0.0378,0.0393,0,0,0.0385,0.0386,0,0,0,0,0,0,0,0,0.0225,0.0229,0.0275,0.0278,0.0281,0.0319,0.0317,0.0347,0.0317,0.0295,0.0317,0.0317,0.0362,0.0365,0.0363,0.0395,0.0398,0.0385,0.0387,0.0388,0.0388,0,0,0,0,0,0,0,0.0223,0.0227,0.0278,0.0277,0.0281,0.0296,0.0299,0.0322,0.0321,0.0297,0.0299,0.0318,0.0362,0.0361,0.0365,0.0399,0.0385,0.0387,0.0389,0.0389,0.0402,0.0401,0,0,0,0,0,0,0.0231,0.0224,0.0277,0.0281,0.0262,0.0298,0.0301,0.03,0.0321,0.0327,0.0318,0.0318,0.0357,0.0362,0.0367,0.0316,0.0387,0.039,0.0391,0.0403,0.0402,0.0401,0,0,0,0,0,0,0.0229,0.0234,0.0274,0.0262,0.0269,0.03,0.0298,0.0301,0.0278,0.0339,0.0342,0.029,0.0357,0.0364,0.0346,0.0321,0.0391,0.0393,0.0405,0.0403,0.0401,0.0258,0,0,0,0,0,0,0.0226,0.0233,0.021,0.0261,0.027,0.0259,0.0299,0.0303,0.0296,0.0295,0.0317,0.0323,0.0358,0.0341,0.0348,0.0325,0.0395,0.0406,0.0404,0.0402,0.0264,0.0252,0.0242,0,0,0,0,0,0.0223,0.0203,0.0208,0.0214,0.0245,0.0258,0.026,0.0279,0.0294,0.0261,0.0276,0.0321,0.0335,0.0341,0.0349,0.0327,0.0407,0.0404,0.0402,0.027,0.0255,0.0242,0,0,0,0,0,0,0.017,0.0204,0.0209,0.0201,0.021,0.026,0.0243,0.0261,0.0247,0.0243,0.0294,0.03,0.0281,0.0323,0.0329,0.0328,0.0385,0.0384,0.0282,0.0268,0.0257,0.0256,0.0397,0,0,0,0,0,0.0147,0.0133,0.017,0.016,0.0159,0.0193,0.0196,0.0207,0.0223,0.0215,0.0234,0.0262,0.0283,0.0286,0.0308,0.0297,0.036,0.0295,0.0283,0.0273,0.0279,0.0357,0.0353,0.0393,0.0393,0.0393,0,0,0.0126,0.0146,0.0137,0.0146,0.0156,0.0119,0.019,0.0182,0.0148,0.0226,0.0171,0.0216,0.0271,0.0255,0.0253,0.0281,0.0286,0.027,0.026,0.0273,0.0354,0.0351,0.0347,0.0392,0.0392,0.0392,0,0,0.0081,0.0088,0.0051,0.0037,0.0045,0.006,0.0048,0.0068,0.0067,0.0033,0.0092,0.0117,0.0124,0.017,0.0196,0.0139,0.0223,0.0148,0.0086,0.016,0.0157,0.0156,0.0193,0.0196,0.0142,0.0141,0.0141,0,0.0041,0.001,0.0041,-0.0009,-0.0027,0.002,-0.0038,-0.0037,-0.0029,-0.0021,-0.0011,0.0049,0.0089,0.0116,0.0094,0.0114,0.0159,0.0127,0.0144,0.0145,0.0146,0.0185,0.0191,0.0134,0.0135,0.0136,0.0136,0,-0.002,-0.0082,-0.0104,-0.0161,-0.0183,-0.0218,-0.0209,-0.0228,-0.0214,-0.0192,-0.017,-0.0103,-0.0055,-0.0038,0.0004,0.0039,0.0067,0.0119,0.0176,0.0134,0.0176,0.0185,0.0124,0.0126,0.0129,0.013,0,0,-0.0045,-0.0134,-0.0152,-0.0215,-0.0267,-0.0282,-0.0342,-0.0353,-0.0361,-0.0346,-0.0334,-0.0285,-0.0211,-0.0173,-0.0093,-0.0028,0.0004,0.0037,0.0044,0.0066,0.014,0.021,0.0227,0.0059,0.0061,0.0062,0.0152,0,-0.0119,-0.0234,-0.0256,-0.0392,-0.0462,-0.0458,-0.0506,-0.0511,-0.0489,-0.0472,-0.037,-0.0338,-0.0273,-0.0233,-0.0164,-0.0026,0.0027,-0.0026,0.0186,0.0192,0.0255,0.024,0.024,0.0326,0.0161,0.0162,0.0163,0,-0.0173,-0.026,-0.0391,-0.0505,-0.0528,-0.0596,-0.0629,-0.0662,-0.0622,-0.0595,-0.0534,-0.0451,-0.0359,-0.0285,-0.0098,-0.0136,-0.0017,0.0089,0.0096,0.0227,0.028,0.0352,0.0349,0.0179,0.0177,0.0176,0.0175,0,-0.0183,-0.0342,-0.0442,-0.0494,-0.0618,-0.0661,-0.0699,-0.0698,-0.0705,-0.0657,-0.0634,-0.0525,-0.0443,-0.0293,-0.0096,-0.0095,0.0126,0.0158,0.0328,0.0332,0.0411,0.0421,0.0296,0.0296,0.0295,0.0295,0.0295,0,-0.0231,-0.0322,-0.0462,-0.0538,-0.0654,-0.0704,-0.0778,-0.0783,-0.077,-0.0767,-0.0685,-0.0618,-0.0433,-0.0285,-0.0121,0.0125,0.0102,0.0321,0.0372,0.0356,0.036,0.0308,0.0308,0.0298,0.0298,0.0297,0.0296,0,-0.0217,-0.0306,-0.0459,-0.0623,-0.0673,-0.0749,-0.0849,-0.0886,-0.0857,-0.0839,-0.0824,-0.0683,-0.0506,-0.0321,-0.006,0.011,0.0326,0.0422,0.037,0.0415,0.0479,0.047,0.0605,0.0609,0.0612,0.0614,0.0617,0,-0.0221,-0.0298,-0.0515,-0.0623,-0.0711,-0.0831,-0.0911,-0.0934,-0.0956,-0.0857,-0.0837,-0.0673,-0.0515,-0.0138,0.0143,0.0417,0.0391,0.0599,0.062,0.0481,0.0517,0.0503,0.0491,0.0641,0.0643,0.0645,0.0646,0,-0.0264,-0.0329,-0.0456,-0.0681,-0.0818,-0.0942,-0.1037,-0.1035,-0.1023,-0.096,-0.0812,-0.0665,-0.0331,0.0003,0.0346,0.0513,0.0547,0.0647,0.0539,0.057,0.0525,0.0556,0.0541,0.0662,0.066,0.0659,0.0658,0.0658,-0.03,-0.0386,-0.0564,-0.0754,-0.0912,-0.1016,-0.1051,-0.1066,-0.1025,-0.0845,-0.0754,-0.0455,-0.0198,0.0358,0.052,0.0687,0.0722,0.0799,0.0789,0.0779,0.0774,0.0739,0.0912,0.0911,0.0911,0.0911,0.0911,0,-0.0398,-0.0475,-0.0639,-0.0862,-0.1005,-0.1092,-0.1127,-0.1095,-0.0978,-0.0742,-0.0556,-0.0209,0.0172,0.0383,0.0701,0.0889,0.0832,0.0865,0.0763,0.0752,0.0741,0.0728,0.0856,0.0855,0.0855,0.0854,0,0,-0.0462,-0.061,-0.0674,-0.0911,-0.1053,-0.1176,-0.1167,-0.1051,-0.0863,-0.0582,-0.0306,0.0027,0.0303,0.0499,0.0654,0.0764,0.0699,0.0755,0.0804,0.0658,0.0642,0.0735,0.0708,0,0,0,0,0]}],[{"header":{"parameterUnit":"m.s-1","parameterCategory":2,"la1":30.2991,"la2":30.254,"lo1":-89.0895,"lo2":-89.0444,"dy":0.0017,"dx":0.0017,"nx":28,"ny":28,"refTime":"2024-04-12T21:00:00:Z","depth":"4","parameterNumber":2,"parameterNumberName":"U-component_of_CURRENTS"},"data":[0,0,0,0,0,0,0,0,0,0,0,0,0,0,0,0,0,0,0,0,0,0,0,0,0,0,0,0,0,0,0,0,0,0,0,0,0,0,0,0,0,0,0,0,0,0,0,0,0,0,0,0,0,0,0,0,0,0,-0.0936,-0.0937,0,-0.0985,-0.0986,-0.0986,-0.1017,-0.1018,-0.1018,-0.1019,-0.1177,-0.118,-0.1184,0,0,0,0,0,0,0,0,0,0,0,0,0,-0.0851,-0.0852,-0.0936,-0.0937,-0.0938,-0.0985,-0.0986,-0.0986,-0.1017,-0.1018,-0.1018,-0.1019,-0.1176,-0.118,-0.1185,0,0,0,0,0,0,0,0,0,0,0,0,0,-0.089,-0.0852,-0.0936,-0.0961,-0.0964,-0.0985,-0.0986,-0.0986,-0.1017,-0.1018,-0.1019,-0.1019,-0.1174,-0.118,-0.1185,-0.1208,0,0,-0.1203,-0.1205,0,0,0,0,0,0,0,0,-0.0888,-0.0893,-0.0957,-0.096,-0.0963,-0.0998,-0.1014,-0.1067,-0.1017,-0.0994,-0.1019,-0.1019,-0.1129,-0.1138,-0.114,-0.1215,-0.1222,-0.1203,-0.1207,-0.1209,-0.1211,0,0,0,0,0,0,0,-0.0885,-0.0891,-0.0953,-0.0958,-0.0961,-0.0964,-0.097,-0.1023,-0.1057,-0.0996,-0.0999,-0.1009,-0.1131,-0.1135,-0.1145,-0.1224,-0.1203,-0.1208,-0.1212,-0.1214,-0.1442,-0.1444,0,0,0,0,0,0,-0.0885,-0.0888,-0.0952,-0.0955,-0.0929,-0.0965,-0.0972,-0.0984,-0.1054,-0.1065,-0.1008,-0.101,-0.1125,-0.1138,-0.1151,-0.126,-0.1209,-0.1214,-0.1218,-0.1439,-0.1442,-0.1445,0,0,0,0,0,0,-0.0883,-0.089,-0.095,-0.0925,-0.0933,-0.0966,-0.098,-0.0985,-0.0976,-0.1063,-0.1076,-0.0993,-0.1126,-0.1143,-0.1255,-0.1264,-0.1217,-0.1222,-0.1436,-0.144,-0.1444,-0.143,0,0,0,0,0,0,-0.088,-0.0889,-0.089,-0.0925,-0.0934,-0.0995,-0.0979,-0.0985,-0.0983,-0.0985,-0.1054,-0.107,-0.1127,-0.1247,-0.1261,-0.1271,-0.1227,-0.1433,-0.1438,-0.1442,-0.1427,-0.1433,-0.1438,0,0,0,0,0,-0.0877,-0.0877,-0.089,-0.0897,-0.0937,-0.0997,-0.1003,-0.1025,-0.0981,-0.1009,-0.1074,-0.1067,-0.1287,-0.1255,-0.1271,-0.1282,-0.143,-0.1436,-0.1442,-0.1425,-0.1432,-0.1438,0,0,0,0,0,0,-0.0849,-0.0882,-0.0896,-0.0909,-0.0966,-0.1004,-0.1023,-0.1006,-0.1064,-0.1082,-0.1114,-0.1139,-0.122,-0.1271,-0.1233,-0.1367,-0.1351,-0.136,-0.1332,-0.1339,-0.1345,-0.1327,-0.1231,0,0,0,0,0,-0.0842,-0.0845,-0.0903,-0.0918,-0.095,-0.0973,-0.0986,-0.102,-0.1075,-0.1095,-0.1155,-0.122,-0.1256,-0.1315,-0.1377,-0.1468,-0.1463,-0.1485,-0.149,-0.1494,-0.1495,-0.1511,-0.1516,-0.1465,-0.1464,-0.1464,0,0,-0.0843,-0.0853,-0.0862,-0.0911,-0.0952,-0.0988,-0.0984,-0.1043,-0.1072,-0.111,-0.1192,-0.1232,-0.1278,-0.1379,-0.142,-0.1429,-0.1508,-0.1502,-0.1504,-0.1503,-0.1517,-0.1522,-0.1525,-0.1469,-0.1468,-0.1467,0,0,-0.0839,-0.086,-0.0868,-0.0901,-0.0972,-0.101,-0.1016,-0.1093,-0.1138,-0.1199,-0.1238,-0.1301,-0.1365,-0.1443,-0.1457,-0.1531,-0.1511,-0.1547,-0.1588,-0.1603,-0.1606,-0.1608,-0.1595,-0.1596,-0.1578,-0.1578,-0.1578,0,-0.0839,-0.0852,-0.0888,-0.0898,-0.0934,-0.1003,-0.1045,-0.109,-0.1199,-0.1251,-0.123,-0.1323,-0.1373,-0.1461,-0.1505,-0.1534,-0.1539,-0.1547,-0.1604,-0.1607,-0.1609,-0.1595,-0.1597,-0.1578,-0.1578,-0.1578,-0.1578,0,-0.0819,-0.0851,-0.0868,-0.0901,-0.0948,-0.1013,-0.1095,-0.1184,-0.1204,-0.1229,-0.1318,-0.1394,-0.1458,-0.1471,-0.1499,-0.1578,-0.157,-0.1576,-0.157,-0.1613,-0.1596,-0.1598,-0.1578,-0.1578,-0.1578,-0.1578,0,0,-0.0807,-0.0848,-0.0865,-0.0901,-0.0969,-0.1026,-0.1109,-0.1219,-0.1237,-0.1327,-0.1361,-0.1432,-0.1478,-0.1507,-0.1581,-0.1608,-0.1624,-0.162,-0.1621,-0.1576,-0.1644,-0.1505,-0.1493,-0.1643,-0.1643,-0.1644,-0.1617,0,-0.0811,-0.0818,-0.0861,-0.0936,-0.0966,-0.1076,-0.1126,-0.1225,-0.1265,-0.1334,-0.1416,-0.147,-0.149,-0.1548,-0.1574,-0.1611,-0.1633,-0.1629,-0.1638,-0.1637,-0.1483,-0.1492,-0.1647,-0.1618,-0.1619,-0.1619,-0.1619,0,-0.0794,-0.08,-0.0838,-0.0958,-0.0992,-0.1042,-0.1166,-0.1244,-0.134,-0.1372,-0.1445,-0.1492,-0.1613,-0.1593,-0.1648,-0.1651,-0.1658,-0.1652,-0.1651,-0.1526,-0.1501,-0.1577,-0.1622,-0.1622,-0.1622,-0.1622,-0.1621,0,-0.0734,-0.0831,-0.0864,-0.0881,-0.0979,-0.1065,-0.1169,-0.1244,-0.13,-0.1446,-0.1432,-0.156,-0.1604,-0.165,-0.1662,-0.1676,-0.1653,-0.1669,-0.1542,-0.1531,-0.1668,-0.1666,-0.1686,-0.1686,-0.1686,-0.1686,-0.1686,0,-0.0702,-0.0757,-0.0842,-0.0837,-0.0909,-0.1035,-0.1096,-0.1215,-0.1312,-0.1339,-0.1479,-0.1493,-0.1613,-0.162,-0.1658,-0.158,-0.1656,-0.1532,-0.1514,-0.1665,-0.1663,-0.1668,-0.1666,-0.1685,-0.1685,-0.1685,-0.1686,0,-0.0633,-0.0675,-0.0708,-0.0813,-0.0857,-0.0917,-0.1056,-0.1075,-0.1206,-0.1251,-0.1326,-0.1439,-0.1467,-0.1516,-0.1562,-0.152,-0.1515,-0.1477,-0.161,-0.1602,-0.1386,-0.1385,-0.1331,-0.1326,-0.1321,-0.1318,-0.1315,0,-0.0592,-0.0586,-0.0642,-0.0651,-0.071,-0.08,-0.0827,-0.0999,-0.1015,-0.1191,-0.1199,-0.1288,-0.1343,-0.1284,-0.1364,-0.139,-0.1386,-0.1368,-0.14,-0.1361,-0.135,-0.1356,-0.136,-0.1308,-0.1307,-0.1305,-0.1304,0,-0.0515,-0.0524,-0.0536,-0.0519,-0.0551,-0.0569,-0.0663,-0.0679,-0.0878,-0.0954,-0.1078,-0.1162,-0.1144,-0.1211,-0.121,-0.1245,-0.138,-0.1323,-0.1333,-0.1363,-0.1332,-0.1327,-0.1337,-0.1289,-0.1291,-0.1293,-0.1294,0,-0.0458,-0.0429,-0.0419,-0.0422,-0.0421,-0.041,-0.0466,-0.0553,-0.0618,-0.0864,-0.089,-0.1029,-0.1135,-0.113,-0.1153,-0.1146,-0.1144,-0.1136,-0.1156,-0.1174,-0.1133,-0.1072,-0.092,0,0,0,0,0,-0.0399,-0.0363,-0.0349,-0.0304,-0.029,-0.0296,-0.0383,-0.0449,-0.0608,-0.0663,-0.0808,-0.0847,-0.0934,-0.0997,-0.0957,-0.1023,-0.1103,-0.0967,-0.1094,-0.1205,-0.1223,-0.1188,0,0,0,0,0,0,-0.0357,-0.0326,-0.0311,-0.0209,-0.0173,-0.0133,-0.0198,-0.0308,-0.0365,-0.0566,-0.0612,-0.0744,-0.0813,-0.0921,-0.0917,-0.0927,-0.0984,-0.104,-0.1037,-0.1195,-0.1211,-0.1225,-0.1196,0,0,0,0,0]},{"header":{"parameterUnit":"m.s-1","parameterCategory":2,"la1":30.2991,"la2":30.254,"lo1":-89.0895,"lo2":-89.0444,"dy":0.0017,"dx":0.0017,"nx":28,"ny":28,"refTime":"2024-04-12T21:00:00:Z","depth":"4","parameterNumber":3,"parameterNumberName":"V-component_of_CURRENTS"},"data":[0,0,0,0,0,0,0,0,0,0,0,0,0,0,0,0,0,0,0,0,0,0,0,0,0,0,0,0,0,0,0,0,0,0,0,0,0,0,0,0,0,0,0,0,0,0,0,0,0,0,0,0,0,0,0,0,0,0,-0.0048,-0.0048,0,-0.0099,-0.01,-0.01,-0.0112,-0.0111,-0.0111,-0.011,-0.0018,-0.0016,-0.0014,0,0,0,0,0,0,0,0,0,0,0,0,0,-0.001,-0.001,-0.0048,-0.0048,-0.0049,-0.0099,-0.01,-0.0101,-0.0112,-0.0111,-0.011,-0.011,-0.0019,-0.0016,-0.0014,0,0,0,0,0,0,0,0,0,0,0,0,0,-0.0042,-0.001,-0.0048,-0.0058,-0.006,-0.0099,-0.01,-0.0101,-0.0112,-0.0111,-0.011,-0.0109,-0.0019,-0.0017,-0.0014,-0.0015,0,0,-0.0005,-0.0004,0,0,0,0,0,0,0,0,-0.0041,-0.0044,-0.0057,-0.0058,-0.0059,-0.0096,-0.0052,-0.0064,-0.0112,-0.0095,-0.011,-0.0109,-0.0029,-0.0026,-0.0043,-0.001,-0.0006,-0.0005,-0.0003,-0.0002,-0.0001,0,0,0,0,0,0,0,-0.0038,-0.0042,-0.0071,-0.0057,-0.0059,-0.0077,-0.0081,-0.0056,-0.0066,-0.0097,-0.0097,-0.0098,-0.003,-0.0046,-0.0041,-0.0005,-0.0005,-0.0002,-0.0001,0.0,0.0058,0.0058,0,0,0,0,0,0,-0.0025,-0.004,-0.0069,-0.0072,-0.0044,-0.0078,-0.0082,-0.0087,-0.007,-0.0067,-0.0099,-0.0099,-0.0052,-0.0044,-0.0037,-0.0029,-0.0002,0.0001,0.0002,0.0058,0.0058,0.0058,0,0,0,0,0,0,-0.0024,-0.0027,-0.0067,-0.0055,-0.0061,-0.0079,-0.0085,-0.0089,-0.0116,-0.0073,-0.0067,-0.0124,-0.0051,-0.0041,-0.0017,-0.0025,0.0002,0.0005,0.0058,0.0058,0.0058,-0.0016,0,0,0,0,0,0,-0.0023,-0.0027,-0.0044,-0.0054,-0.0061,-0.0097,-0.0086,-0.009,-0.0117,-0.0117,-0.0092,-0.0082,-0.0049,-0.0022,-0.0015,-0.0021,0.0007,0.0058,0.0058,0.0058,-0.0014,-0.0019,-0.0024,0,0,0,0,0,-0.0021,-0.0052,-0.0045,-0.0049,-0.0078,-0.0097,-0.0104,-0.0115,-0.0119,-0.0137,-0.0112,-0.0083,-0.0018,-0.002,-0.0011,-0.0017,0.0059,0.0058,0.0058,-0.0012,-0.0018,-0.0024,0,0,0,0,0,0,-0.0048,-0.0056,-0.0048,-0.008,-0.0086,-0.0098,-0.0117,-0.0129,-0.0131,-0.0117,-0.009,-0.0078,-0.0069,-0.0028,-0.0031,0.0,0.0026,0.0028,-0.0029,-0.0035,-0.004,-0.0051,0.0009,0,0,0,0,0,-0.0058,-0.008,-0.008,-0.0104,-0.0103,-0.0114,-0.0129,-0.0126,-0.0122,-0.0126,-0.0109,-0.0078,-0.0065,-0.0038,-0.002,0.0004,0.0061,0.0009,0.0004,-0.0,-0.0003,0.0072,0.0074,0.0056,0.0056,0.0056,0,0,-0.007,-0.0081,-0.0091,-0.0111,-0.0112,-0.0134,-0.0122,-0.0131,-0.0154,-0.0109,-0.0129,-0.0106,-0.0068,-0.0052,-0.0041,-0.0014,0.0037,-0.0001,-0.0005,-0.0005,0.0072,0.0074,0.0075,0.0056,0.0056,0.0056,0,0,-0.0103,-0.0111,-0.0135,-0.015,-0.0151,-0.0152,-0.0158,-0.0164,-0.0168,-0.0183,-0.0154,-0.014,-0.0119,-0.0089,-0.0075,-0.0094,-0.001,-0.0073,-0.0088,-0.0016,-0.0014,-0.0011,0.0071,0.0082,-0.0055,-0.0055,-0.0055,0,-0.0116,-0.0149,-0.0146,-0.0176,-0.0192,-0.0165,-0.0191,-0.0198,-0.0199,-0.0193,-0.0194,-0.0173,-0.0148,-0.0123,-0.0126,-0.0109,-0.0034,-0.0072,-0.0022,-0.0019,-0.0015,0.0069,0.0082,-0.0059,-0.0058,-0.0058,-0.0058,0,-0.0167,-0.0196,-0.021,-0.0237,-0.0256,-0.0267,-0.0263,-0.027,-0.0273,-0.0269,-0.0262,-0.0232,-0.021,-0.0201,-0.0173,-0.0126,-0.0071,-0.0056,-0.001,-0.0018,0.0072,0.0086,-0.0064,-0.0063,-0.0062,-0.0061,0,0,-0.0167,-0.0232,-0.0233,-0.0265,-0.0284,-0.0303,-0.0323,-0.0327,-0.035,-0.0329,-0.0347,-0.0323,-0.0282,-0.0261,-0.0212,-0.0146,-0.0066,-0.0078,-0.0072,-0.0,0.0128,0.0132,0.0149,-0.0019,-0.0018,-0.0016,0.0182,0,-0.0196,-0.027,-0.0292,-0.0353,-0.0385,-0.0381,-0.0412,-0.041,-0.0416,-0.0421,-0.0358,-0.0361,-0.0308,-0.0297,-0.022,-0.0119,-0.0031,-0.0119,0.0129,0.0136,0.0136,0.0163,-0.001,0.0194,0.0197,0.0199,0.0201,0,-0.0224,-0.0278,-0.0346,-0.0416,-0.0426,-0.0465,-0.0504,-0.0524,-0.0506,-0.0507,-0.0467,-0.0423,-0.0333,-0.0301,-0.0094,-0.0138,-0.0004,0.0082,0.0092,0.013,0.0166,0.0203,0.0228,0.0226,0.0224,0.0222,0.0221,0,-0.0223,-0.0307,-0.0366,-0.0395,-0.0469,-0.05,-0.0527,-0.0544,-0.0558,-0.055,-0.0553,-0.0448,-0.0396,-0.0226,-0.0039,-0.0049,0.0199,0.02,0.0338,0.0341,0.031,0.0306,0.0362,0.0362,0.0361,0.0361,0.036,0,-0.0243,-0.0291,-0.038,-0.0421,-0.0496,-0.053,-0.0591,-0.0615,-0.0623,-0.0619,-0.0578,-0.0538,-0.0369,-0.0209,-0.0032,0.0205,0.0219,0.0344,0.0392,0.0276,0.0265,0.0322,0.0315,0.0368,0.0366,0.0365,0.0364,0,-0.0228,-0.0286,-0.0363,-0.046,-0.0503,-0.0549,-0.063,-0.0659,-0.0677,-0.0672,-0.0659,-0.0571,-0.0366,-0.0177,0.0091,0.0205,0.042,0.0511,0.0388,0.0424,0.0517,0.0504,0.0669,0.0671,0.0673,0.0674,0.0675,0,-0.023,-0.027,-0.0387,-0.0445,-0.0498,-0.058,-0.0626,-0.0675,-0.0689,-0.0667,-0.0634,-0.0487,-0.039,-0.0003,0.0175,0.0497,0.0538,0.0626,0.0551,0.0518,0.0549,0.0533,0.0518,0.0677,0.0678,0.0678,0.0678,0,-0.0228,-0.026,-0.0317,-0.0428,-0.0505,-0.0588,-0.0651,-0.0669,-0.0683,-0.0703,-0.0581,-0.043,-0.0203,0.0037,0.0277,0.0508,0.0537,0.0643,0.064,0.057,0.053,0.0555,0.0539,0.0684,0.0683,0.0682,0.0682,0,-0.0203,-0.0233,-0.0298,-0.0391,-0.0482,-0.055,-0.0613,-0.0606,-0.0617,-0.0593,-0.0534,-0.0338,-0.0237,0.005,0.0286,0.0485,0.0521,0.0544,0.0547,0.0544,0.0423,0.0349,0.0501,0,0,0,0,0,-0.0152,-0.0183,-0.027,-0.0355,-0.0433,-0.0483,-0.0592,-0.0636,-0.0658,-0.0558,-0.0549,-0.033,-0.0036,0.0081,0.0294,0.0307,0.0545,0.0554,0.0572,0.0713,0.0707,0.0583,0,0,0,0,0,0,-0.0127,-0.0179,-0.0233,-0.0283,-0.0325,-0.0404,-0.0469,-0.0512,-0.0461,-0.0469,-0.0295,-0.0264,0.0044,-0.0098,0.0325,0.0374,0.0405,0.0685,0.0688,0.0716,0.0711,0.0706,0.0577,0,0,0,0,0]}]]